#datetime,building,power
2024-04-14T00:00:00,axn,33.42
2024-04-14T00:01:00,axn,32.49
2024-04-14T00:02:00,axn,32.20
2024-04-14T00:03:00,axn,32.44
2024-04-14T00:04:00,axn,35.27
2024-04-14T00:05:00,axn,35.65
2024-04-14T00:06:00,axn,32.34
2024-04-14T00:07:00,axn,32.45
2024-04-14T00:08:00,axn,32.52
2024-04-14T00:09:00,axn,32.69
2024-04-14T00:10:00,axn,32.45
2024-04-14T00:11:00,axn,32.37
2024-04-14T00:12:00,axn,32.49
2024-04-14T00:13:00,axn,32.67
2024-04-14T00:14:00,axn,32.43
2024-04-14T00:15:00,axn,32.12
2024-04-14T00:16:00,axn,32.62
2024-04-14T00:17:00,axn,32.45
2024-04-14T00:18:00,axn,32.75
2024-04-14T00:19:00,axn,32.87
2024-04-14T00:20:00,axn,32.55
2024-04-14T00:21:00,axn,32.40
2024-04-14T00:22:00,axn,32.33
2024-04-14T00:23:00,axn,32.83
2024-04-14T00:24:00,axn,32.93
2024-04-14T00:25:00,axn,32.71
2024-04-14T00:26:00,axn,32.82
2024-04-14T00:27:00,axn,37.91
2024-04-14T00:28:00,axn,32.87
2024-04-14T00:29:00,axn,33.51
2024-04-14T00:30:00,axn,33.30
2024-04-14T00:31:00,axn,31.61
2024-04-14T00:32:00,axn,28.90
2024-04-14T00:33:00,axn,29.04
2024-04-14T00:34:00,axn,28.96
2024-04-14T00:35:00,axn,28.68
2024-04-14T00:36:00,axn,28.83
2024-04-14T00:37:00,axn,28.88
2024-04-14T00:38:00,axn,28.94
2024-04-14T00:39:00,axn,28.89
2024-04-14T00:40:00,axn,29.07
2024-04-14T00:41:00,axn,29.31
2024-04-14T00:42:00,axn,29.02
2024-04-14T00:43:00,axn,29.06
2024-04-14T00:44:00,axn,29.36
2024-04-14T00:45:00,axn,28.91
2024-04-14T00:46:00,axn,37.13
2024-04-14T00:47:00,axn,37.43
2024-04-14T00:48:00,axn,37.40
2024-04-14T00:49:00,axn,37.87
2024-04-14T00:50:00,axn,37.58
2024-04-14T00:51:00,axn,37.25
2024-04-14T00:52:00,axn,38.03
2024-04-14T00:53:00,axn,37.25
2024-04-14T00:54:00,axn,37.47
2024-04-14T00:55:00,axn,37.85
2024-04-14T00:56:00,axn,37.49
2024-04-14T00:57:00,axn,37.99
2024-04-14T00:58:00,axn,37.34
2024-04-14T00:59:00,axn,37.38
2024-04-14T01:00:00,axn,37.40
2024-04-14T01:01:00,axn,37.57
2024-04-14T01:02:00,axn,37.42
2024-04-14T01:03:00,axn,37.48
2024-04-14T01:04:00,axn,37.40
2024-04-14T01:05:00,axn,37.29
2024-04-14T01:06:00,axn,37.44
2024-04-14T01:07:00,axn,37.42
2024-04-14T01:08:00,axn,37.46
2024-04-14T01:09:00,axn,37.39
2024-04-14T01:10:00,axn,37.42
2024-04-14T01:11:00,axn,37.76
2024-04-14T01:12:00,axn,37.43
2024-04-14T01:13:00,axn,37.61
2024-04-14T01:14:00,axn,37.73
2024-04-14T01:15:00,axn,37.40
2024-04-14T01:16:00,axn,37.55
2024-04-14T01:17:00,axn,37.64
2024-04-14T01:18:00,axn,37.57
2024-04-14T01:19:00,axn,37.80
2024-04-14T01:20:00,axn,37.86
2024-04-14T01:21:00,axn,37.49
2024-04-14T01:22:00,axn,52.44
2024-04-14T01:23:00,axn,58.21
2024-04-14T01:24:00,axn,57.95
2024-04-14T01:25:00,axn,57.68
2024-04-14T01:26:00,axn,51.72
2024-04-14T01:27:00,axn,51.73
2024-04-14T01:28:00,axn,37.49
2024-04-14T01:29:00,axn,37.13
2024-04-14T01:30:00,axn,37.14
2024-04-14T01:31:00,axn,36.76
2024-04-14T01:32:00,axn,36.73
2024-04-14T01:33:00,axn,36.39
2024-04-14T01:34:00,axn,36.84
2024-04-14T01:35:00,axn,36.50
2024-04-14T01:36:00,axn,36.54
2024-04-14T01:37:00,axn,36.58
2024-04-14T01:38:00,axn,36.40
2024-04-14T01:39:00,axn,36.95
2024-04-14T01:40:00,axn,37.32
2024-04-14T01:41:00,axn,37.49
2024-04-14T01:42:00,axn,36.86
2024-04-14T01:43:00,axn,37.68
2024-04-14T01:44:00,axn,37.47
2024-04-14T01:45:00,axn,37.12
2024-04-14T01:46:00,axn,36.99
2024-04-14T01:47:00,axn,37.26
2024-04-14T01:48:00,axn,37.41
2024-04-14T01:49:00,axn,37.53
2024-04-14T01:50:00,axn,37.52
2024-04-14T01:51:00,axn,37.75
2024-04-14T01:52:00,axn,37.52
2024-04-14T01:53:00,axn,37.44
2024-04-14T01:54:00,axn,37.45
2024-04-14T01:55:00,axn,37.44
2024-04-14T01:56:00,axn,37.25
2024-04-14T01:57:00,axn,37.57
2024-04-14T01:58:00,axn,37.57
2024-04-14T01:59:00,axn,37.72
2024-04-14T02:00:00,axn,37.66
2024-04-14T02:01:00,axn,37.95
2024-04-14T02:02:00,axn,37.43
2024-04-14T02:03:00,axn,37.39
2024-04-14T02:04:00,axn,37.75
2024-04-14T02:05:00,axn,37.37
2024-04-14T02:06:00,axn,37.41
2024-04-14T02:07:00,axn,37.09
2024-04-14T02:08:00,axn,36.97
2024-04-14T02:09:00,axn,36.86
2024-04-14T02:10:00,axn,37.24
2024-04-14T02:11:00,axn,36.98
2024-04-14T02:12:00,axn,36.95
2024-04-14T02:13:00,axn,37.02
2024-04-14T02:14:00,axn,37.34
2024-04-14T02:15:00,axn,36.96
2024-04-14T02:16:00,axn,36.88
2024-04-14T02:17:00,axn,37.12
2024-04-14T02:18:00,axn,37.05
2024-04-14T02:19:00,axn,37.62
2024-04-14T02:20:00,axn,36.94
2024-04-14T02:21:00,axn,36.92
2024-04-14T02:22:00,axn,37.00
2024-04-14T02:23:00,axn,36.81
2024-04-14T02:24:00,axn,37.23
2024-04-14T02:25:00,axn,36.89
2024-04-14T02:26:00,axn,36.80
2024-04-14T02:27:00,axn,36.25
2024-04-14T02:28:00,axn,36.09
2024-04-14T02:29:00,axn,36.07
2024-04-14T02:30:00,axn,36.11
2024-04-14T02:31:00,axn,35.95
2024-04-14T02:32:00,axn,35.86
2024-04-14T02:33:00,axn,35.82
2024-04-14T02:34:00,axn,35.84
2024-04-14T02:35:00,axn,35.95
2024-04-14T02:36:00,axn,35.88
2024-04-14T02:37:00,axn,35.95
2024-04-14T02:38:00,axn,36.40
2024-04-14T02:39:00,axn,36.12
2024-04-14T02:40:00,axn,36.63
2024-04-14T02:41:00,axn,36.02
2024-04-14T02:42:00,axn,35.87
2024-04-14T02:43:00,axn,36.01
2024-04-14T02:44:00,axn,36.22
2024-04-14T02:45:00,axn,36.24
2024-04-14T02:46:00,axn,36.21
2024-04-14T02:47:00,axn,36.55
2024-04-14T02:48:00,axn,36.16
2024-04-14T02:49:00,axn,36.45
2024-04-14T02:50:00,axn,36.21
2024-04-14T02:51:00,axn,36.15
2024-04-14T02:52:00,axn,36.23
2024-04-14T02:53:00,axn,36.59
2024-04-14T02:54:00,axn,36.02
2024-04-14T02:55:00,axn,36.12
2024-04-14T02:56:00,axn,36.00
2024-04-14T02:57:00,axn,36.08
2024-04-14T02:58:00,axn,27.73
2024-04-14T02:59:00,axn,28.18
2024-04-14T03:00:00,axn,27.72
2024-04-14T03:01:00,axn,28.03
2024-04-14T03:02:00,axn,27.79
2024-04-14T03:03:00,axn,27.87
2024-04-14T03:04:00,axn,27.66
2024-04-14T03:05:00,axn,28.04
2024-04-14T03:06:00,axn,27.68
2024-04-14T03:07:00,axn,28.02
2024-04-14T03:08:00,axn,27.75
2024-04-14T03:09:00,axn,27.69
2024-04-14T03:10:00,axn,27.73
2024-04-14T03:11:00,axn,27.95
2024-04-14T03:12:00,axn,27.90
2024-04-14T03:13:00,axn,27.85
2024-04-14T03:14:00,axn,27.86
2024-04-14T03:15:00,axn,27.93
2024-04-14T03:16:00,axn,27.87
2024-04-14T03:17:00,axn,27.84
2024-04-14T03:18:00,axn,28.25
2024-04-14T03:19:00,axn,28.37
2024-04-14T03:20:00,axn,28.42
2024-04-14T03:21:00,axn,28.22
2024-04-14T03:22:00,axn,28.03
2024-04-14T03:23:00,axn,28.16
2024-04-14T03:24:00,axn,27.96
2024-04-14T03:25:00,axn,28.03
2024-04-14T03:26:00,axn,28.09
2024-04-14T03:27:00,axn,28.15
2024-04-14T03:28:00,axn,28.17
2024-04-14T03:29:00,axn,28.09
2024-04-14T03:30:00,axn,28.23
2024-04-14T03:31:00,axn,28.08
2024-04-14T03:32:00,axn,27.89
2024-04-14T03:33:00,axn,27.88
2024-04-14T03:34:00,axn,28.31
2024-04-14T03:35:00,axn,27.97
2024-04-14T03:36:00,axn,28.12
2024-04-14T03:37:00,axn,27.77
2024-04-14T03:38:00,axn,28.19
2024-04-14T03:39:00,axn,27.92
2024-04-14T03:40:00,axn,27.81
2024-04-14T03:41:00,axn,28.02
2024-04-14T03:42:00,axn,27.79
2024-04-14T03:43:00,axn,27.73
2024-04-14T03:44:00,axn,27.69
2024-04-14T03:45:00,axn,27.74
2024-04-14T03:46:00,axn,28.68
2024-04-14T03:47:00,axn,27.83
2024-04-14T03:48:00,axn,27.95
2024-04-14T03:49:00,axn,27.98
2024-04-14T03:50:00,axn,28.01
2024-04-14T03:51:00,axn,28.01
2024-04-14T03:52:00,axn,28.11
2024-04-14T03:53:00,axn,27.89
2024-04-14T03:54:00,axn,28.05
2024-04-14T03:55:00,axn,28.14
2024-04-14T03:56:00,axn,28.07
2024-04-14T03:57:00,axn,28.24
2024-04-14T03:58:00,axn,27.97
2024-04-14T03:59:00,axn,27.89
2024-04-14T04:00:00,axn,28.68
2024-04-14T04:01:00,axn,28.83
2024-04-14T04:02:00,axn,28.08
2024-04-14T04:03:00,axn,27.99
2024-04-14T04:04:00,axn,28.19
2024-04-14T04:05:00,axn,28.24
2024-04-14T04:06:00,axn,28.46
2024-04-14T04:07:00,axn,28.39
2024-04-14T04:08:00,axn,28.23
2024-04-14T04:09:00,axn,28.27
2024-04-14T04:10:00,axn,28.24
2024-04-14T04:11:00,axn,28.63
2024-04-14T04:12:00,axn,28.21
2024-04-14T04:13:00,axn,28.32
2024-04-14T04:14:00,axn,27.96
2024-04-14T04:15:00,axn,28.03
2024-04-14T04:16:00,axn,28.08
2024-04-14T04:17:00,axn,27.87
2024-04-14T04:18:00,axn,28.08
2024-04-14T04:19:00,axn,28.21
2024-04-14T04:20:00,axn,27.73
2024-04-14T04:21:00,axn,27.72
2024-04-14T04:22:00,axn,27.81
2024-04-14T04:23:00,axn,28.15
2024-04-14T04:24:00,axn,27.57
2024-04-14T04:25:00,axn,28.04
2024-04-14T04:26:00,axn,27.70
2024-04-14T04:27:00,axn,27.91
2024-04-14T04:28:00,axn,28.01
2024-04-14T04:29:00,axn,38.63
2024-04-14T04:30:00,axn,28.02
2024-04-14T04:31:00,axn,28.15
2024-04-14T04:32:00,axn,27.93
2024-04-14T04:33:00,axn,28.04
2024-04-14T04:34:00,axn,27.93
2024-04-14T04:35:00,axn,27.99
2024-04-14T04:36:00,axn,28.10
2024-04-14T04:37:00,axn,27.99
2024-04-14T04:38:00,axn,28.05
2024-04-14T04:39:00,axn,27.91
2024-04-14T04:40:00,axn,28.34
2024-04-14T04:41:00,axn,27.96
2024-04-14T04:42:00,axn,28.03
2024-04-14T04:43:00,axn,28.06
2024-04-14T04:44:00,axn,27.98
2024-04-14T04:45:00,axn,28.15
2024-04-14T04:46:00,axn,28.09
2024-04-14T04:47:00,axn,28.11
2024-04-14T04:48:00,axn,28.29
2024-04-14T04:49:00,axn,28.27
2024-04-14T04:50:00,axn,28.46
2024-04-14T04:51:00,axn,28.24
2024-04-14T04:52:00,axn,28.38
2024-04-14T04:53:00,axn,28.23
2024-04-14T04:54:00,axn,28.60
2024-04-14T04:55:00,axn,28.47
2024-04-14T04:56:00,axn,29.05
2024-04-14T04:57:00,axn,28.29
2024-04-14T04:58:00,axn,28.73
2024-04-14T04:59:00,axn,28.20
2024-04-14T05:00:00,axn,28.07
2024-04-14T05:01:00,axn,25.62
2024-04-14T05:02:00,axn,30.30
2024-04-14T05:03:00,axn,32.77
2024-04-14T05:04:00,axn,30.05
2024-04-14T05:05:00,axn,30.07
2024-04-14T05:06:00,axn,30.05
2024-04-14T05:07:00,axn,30.08
2024-04-14T05:08:00,axn,30.05
2024-04-14T05:09:00,axn,29.80
2024-04-14T05:10:00,axn,29.78
2024-04-14T05:11:00,axn,25.47
2024-04-14T05:12:00,axn,25.23
2024-04-14T05:13:00,axn,25.51
2024-04-14T05:14:00,axn,25.01
2024-04-14T05:15:00,axn,24.94
2024-04-14T05:16:00,axn,25.15
2024-04-14T05:17:00,axn,25.07
2024-04-14T05:18:00,axn,25.07
2024-04-14T05:19:00,axn,25.19
2024-04-14T05:20:00,axn,24.98
2024-04-14T05:21:00,axn,25.25
2024-04-14T05:22:00,axn,25.03
2024-04-14T05:23:00,axn,25.02
2024-04-14T05:24:00,axn,25.21
2024-04-14T05:25:00,axn,25.16
2024-04-14T05:26:00,axn,25.18
2024-04-14T05:27:00,axn,25.20
2024-04-14T05:28:00,axn,30.03
2024-04-14T05:29:00,axn,29.60
2024-04-14T05:30:00,axn,25.43
2024-04-14T05:31:00,axn,26.34
2024-04-14T05:32:00,axn,26.30
2024-04-14T05:33:00,axn,26.27
2024-04-14T05:34:00,axn,26.28
2024-04-14T05:35:00,axn,26.24
2024-04-14T05:36:00,axn,26.44
2024-04-14T05:37:00,axn,26.73
2024-04-14T05:38:00,axn,26.73
2024-04-14T05:39:00,axn,26.27
2024-04-14T05:40:00,axn,26.27
2024-04-14T05:41:00,axn,26.15
2024-04-14T05:42:00,axn,26.37
2024-04-14T05:43:00,axn,26.12
2024-04-14T05:44:00,axn,26.04
2024-04-14T05:45:00,axn,26.10
2024-04-14T05:46:00,axn,26.36
2024-04-14T05:47:00,axn,27.08
2024-04-14T05:48:00,axn,26.37
2024-04-14T05:49:00,axn,26.24
2024-04-14T05:50:00,axn,26.50
2024-04-14T05:51:00,axn,26.13
2024-04-14T05:52:00,axn,26.38
2024-04-14T05:53:00,axn,26.91
2024-04-14T05:54:00,axn,26.59
2024-04-14T05:55:00,axn,26.61
2024-04-14T05:56:00,axn,26.47
2024-04-14T05:57:00,axn,26.58
2024-04-14T05:58:00,axn,31.69
2024-04-14T05:59:00,axn,26.34
2024-04-14T06:00:00,axn,26.36
2024-04-14T06:01:00,axn,26.29
2024-04-14T06:02:00,axn,26.26
2024-04-14T06:03:00,axn,26.95
2024-04-14T06:04:00,axn,26.40
2024-04-14T06:05:00,axn,26.34
2024-04-14T06:06:00,axn,26.72
2024-04-14T06:07:00,axn,26.77
2024-04-14T06:08:00,axn,26.10
2024-04-14T06:09:00,axn,26.12
2024-04-14T06:10:00,axn,26.11
2024-04-14T06:11:00,axn,26.14
2024-04-14T06:12:00,axn,26.59
2024-04-14T06:13:00,axn,26.26
2024-04-14T06:14:00,axn,26.55
2024-04-14T06:15:00,axn,26.10
2024-04-14T06:16:00,axn,26.07
2024-04-14T06:17:00,axn,26.20
2024-04-14T06:18:00,axn,26.58
2024-04-14T06:19:00,axn,26.39
2024-04-14T06:20:00,axn,25.88
2024-04-14T06:21:00,axn,26.12
2024-04-14T06:22:00,axn,26.05
2024-04-14T06:23:00,axn,26.39
2024-04-14T06:24:00,axn,26.38
2024-04-14T06:25:00,axn,25.93
2024-04-14T06:26:00,axn,25.89
2024-04-14T06:27:00,axn,25.63
2024-04-14T06:28:00,axn,25.75
2024-04-14T06:29:00,axn,26.09
2024-04-14T06:30:00,axn,30.32
2024-04-14T06:31:00,axn,30.21
2024-04-14T06:32:00,axn,25.90
2024-04-14T06:33:00,axn,25.33
2024-04-14T06:34:00,axn,25.39
2024-04-14T06:35:00,axn,25.23
2024-04-14T06:36:00,axn,25.41
2024-04-14T06:37:00,axn,25.36
2024-04-14T06:38:00,axn,25.33
2024-04-14T06:39:00,axn,25.65
2024-04-14T06:40:00,axn,25.54
2024-04-14T06:41:00,axn,25.50
2024-04-14T06:42:00,axn,25.25
2024-04-14T06:43:00,axn,25.50
2024-04-14T06:44:00,axn,25.24
2024-04-14T06:45:00,axn,25.31
2024-04-14T06:46:00,axn,25.58
2024-04-14T06:47:00,axn,25.43
2024-04-14T06:48:00,axn,25.70
2024-04-14T06:49:00,axn,25.55
2024-04-14T06:50:00,axn,25.60
2024-04-14T06:51:00,axn,25.87
2024-04-14T06:52:00,axn,25.87
2024-04-14T06:53:00,axn,26.06
2024-04-14T06:54:00,axn,25.77
2024-04-14T06:55:00,axn,25.88
2024-04-14T06:56:00,axn,25.81
2024-04-14T06:57:00,axn,25.76
2024-04-14T06:58:00,axn,25.80
2024-04-14T06:59:00,axn,25.79
2024-04-14T07:00:00,axn,25.94
2024-04-14T07:01:00,axn,28.91
2024-04-14T07:02:00,axn,32.72
2024-04-14T07:03:00,axn,36.43
2024-04-14T07:04:00,axn,30.66
2024-04-14T07:05:00,axn,29.89
2024-04-14T07:06:00,axn,30.77
2024-04-14T07:07:00,axn,32.66
2024-04-14T07:08:00,axn,34.70
2024-04-14T07:09:00,axn,31.09
2024-04-14T07:10:00,axn,33.98
2024-04-14T07:11:00,axn,31.31
2024-04-14T07:12:00,axn,31.86
2024-04-14T07:13:00,axn,31.60
2024-04-14T07:14:00,axn,32.04
2024-04-14T07:15:00,axn,32.42
2024-04-14T07:16:00,axn,32.36
2024-04-14T07:17:00,axn,31.59
2024-04-14T07:18:00,axn,32.48
2024-04-14T07:19:00,axn,31.48
2024-04-14T07:20:00,axn,31.36
2024-04-14T07:21:00,axn,31.47
2024-04-14T07:22:00,axn,32.02
2024-04-14T07:23:00,axn,32.15
2024-04-14T07:24:00,axn,31.87
2024-04-14T07:25:00,axn,31.70
2024-04-14T07:26:00,axn,31.53
2024-04-14T07:27:00,axn,31.90
2024-04-14T07:28:00,axn,32.09
2024-04-14T07:29:00,axn,32.19
2024-04-14T07:30:00,axn,32.11
2024-04-14T07:31:00,axn,32.16
2024-04-14T07:32:00,axn,31.83
2024-04-14T07:33:00,axn,32.36
2024-04-14T07:34:00,axn,31.78
2024-04-14T07:35:00,axn,31.87
2024-04-14T07:36:00,axn,36.56
2024-04-14T07:37:00,axn,32.24
2024-04-14T07:38:00,axn,32.51
2024-04-14T07:39:00,axn,31.82
2024-04-14T07:40:00,axn,31.98
2024-04-14T07:41:00,axn,31.93
2024-04-14T07:42:00,axn,32.22
2024-04-14T07:43:00,axn,42.63
2024-04-14T07:44:00,axn,42.26
2024-04-14T07:45:00,axn,42.23
2024-04-14T07:46:00,axn,42.30
2024-04-14T07:47:00,axn,31.98
2024-04-14T07:48:00,axn,32.00
2024-04-14T07:49:00,axn,32.26
2024-04-14T07:50:00,axn,31.99
2024-04-14T07:51:00,axn,32.40
2024-04-14T07:52:00,axn,32.71
2024-04-14T07:53:00,axn,32.52
2024-04-14T07:54:00,axn,32.52
2024-04-14T07:55:00,axn,47.53
2024-04-14T07:56:00,axn,47.50
2024-04-14T07:57:00,axn,47.34
2024-04-14T07:58:00,axn,47.12
2024-04-14T07:59:00,axn,46.87
2024-04-14T08:00:00,axn,47.34
2024-04-14T08:01:00,axn,34.33
2024-04-14T08:02:00,axn,34.30
2024-04-14T08:03:00,axn,34.07
2024-04-14T08:04:00,axn,34.09
2024-04-14T08:05:00,axn,33.99
2024-04-14T08:06:00,axn,33.83
2024-04-14T08:07:00,axn,33.77
2024-04-14T08:08:00,axn,38.53
2024-04-14T08:09:00,axn,33.91
2024-04-14T08:10:00,axn,34.49
2024-04-14T08:11:00,axn,44.29
2024-04-14T08:12:00,axn,33.84
2024-04-14T08:13:00,axn,33.81
2024-04-14T08:14:00,axn,33.74
2024-04-14T08:15:00,axn,33.51
2024-04-14T08:16:00,axn,33.52
2024-04-14T08:17:00,axn,33.62
2024-04-14T08:18:00,axn,33.76
2024-04-14T08:19:00,axn,33.56
2024-04-14T08:20:00,axn,34.24
2024-04-14T08:21:00,axn,34.00
2024-04-14T08:22:00,axn,33.91
2024-04-14T08:23:00,axn,33.87
2024-04-14T08:24:00,axn,33.93
2024-04-14T08:25:00,axn,33.97
2024-04-14T08:26:00,axn,33.88
2024-04-14T08:27:00,axn,33.76
2024-04-14T08:28:00,axn,34.03
2024-04-14T08:29:00,axn,33.80
2024-04-14T08:30:00,axn,33.66
2024-04-14T08:31:00,axn,33.78
2024-04-14T08:32:00,axn,33.87
2024-04-14T08:33:00,axn,33.50
2024-04-14T08:34:00,axn,34.05
2024-04-14T08:35:00,axn,33.43
2024-04-14T08:36:00,axn,33.62
2024-04-14T08:37:00,axn,33.72
2024-04-14T08:38:00,axn,34.51
2024-04-14T08:39:00,axn,34.58
2024-04-14T08:40:00,axn,34.24
2024-04-14T08:41:00,axn,38.60
2024-04-14T08:42:00,axn,38.18
2024-04-14T08:43:00,axn,34.17
2024-04-14T08:44:00,axn,34.16
2024-04-14T08:45:00,axn,34.01
2024-04-14T08:46:00,axn,33.58
2024-04-14T08:47:00,axn,33.37
2024-04-14T08:48:00,axn,33.30
2024-04-14T08:49:00,axn,33.46
2024-04-14T08:50:00,axn,33.51
2024-04-14T08:51:00,axn,33.70
2024-04-14T08:52:00,axn,34.12
2024-04-14T08:53:00,axn,33.61
2024-04-14T08:54:00,axn,33.83
2024-04-14T08:55:00,axn,33.60
2024-04-14T08:56:00,axn,33.22
2024-04-14T08:57:00,axn,33.45
2024-04-14T08:58:00,axn,33.53
2024-04-14T08:59:00,axn,36.17
2024-04-14T09:00:00,axn,36.18
2024-04-14T09:01:00,axn,33.41
2024-04-14T09:02:00,axn,33.40
2024-04-14T09:03:00,axn,33.92
2024-04-14T09:04:00,axn,33.76
2024-04-14T09:05:00,axn,33.52
2024-04-14T09:06:00,axn,33.35
2024-04-14T09:07:00,axn,33.47
2024-04-14T09:08:00,axn,33.63
2024-04-14T09:09:00,axn,33.49
2024-04-14T09:10:00,axn,33.64
2024-04-14T09:11:00,axn,33.48
2024-04-14T09:12:00,axn,33.60
2024-04-14T09:13:00,axn,33.48
2024-04-14T09:14:00,axn,33.39
2024-04-14T09:15:00,axn,37.80
2024-04-14T09:16:00,axn,33.35
2024-04-14T09:17:00,axn,33.95
2024-04-14T09:18:00,axn,33.17
2024-04-14T09:19:00,axn,32.93
2024-04-14T09:20:00,axn,33.14
2024-04-14T09:21:00,axn,33.28
2024-04-14T09:22:00,axn,33.33
2024-04-14T09:23:00,axn,33.01
2024-04-14T09:24:00,axn,38.82
2024-04-14T09:25:00,axn,38.72
2024-04-14T09:26:00,axn,38.74
2024-04-14T09:27:00,axn,39.00
2024-04-14T09:28:00,axn,32.94
2024-04-14T09:29:00,axn,32.83
2024-04-14T09:30:00,axn,32.65
2024-04-14T09:31:00,axn,33.04
2024-04-14T09:32:00,axn,32.77
2024-04-14T09:33:00,axn,32.62
2024-04-14T09:34:00,axn,32.28
2024-04-14T09:35:00,axn,32.36
2024-04-14T09:36:00,axn,32.35
2024-04-14T09:37:00,axn,32.33
2024-04-14T09:38:00,axn,32.21
2024-04-14T09:39:00,axn,32.26
2024-04-14T09:40:00,axn,32.34
2024-04-14T09:41:00,axn,32.32
2024-04-14T09:42:00,axn,32.24
2024-04-14T09:43:00,axn,32.39
2024-04-14T09:44:00,axn,32.70
2024-04-14T09:45:00,axn,33.09
2024-04-14T09:46:00,axn,32.81
2024-04-14T09:47:00,axn,32.89
2024-04-14T09:48:00,axn,37.23
2024-04-14T09:49:00,axn,37.16
2024-04-14T09:50:00,axn,32.94
2024-04-14T09:51:00,axn,32.77
2024-04-14T09:52:00,axn,32.87
2024-04-14T09:53:00,axn,33.45
2024-04-14T09:54:00,axn,33.22
2024-04-14T09:55:00,axn,32.86
2024-04-14T09:56:00,axn,32.86
2024-04-14T09:57:00,axn,32.78
2024-04-14T09:58:00,axn,32.92
2024-04-14T09:59:00,axn,33.25
2024-04-14T10:00:00,axn,50.52
2024-04-14T10:01:00,axn,33.00
2024-04-14T10:02:00,axn,33.25
2024-04-14T10:03:00,axn,32.81
2024-04-14T10:04:00,axn,48.74
2024-04-14T10:05:00,axn,32.28
2024-04-14T10:06:00,axn,32.32
2024-04-14T10:07:00,axn,32.41
2024-04-14T10:08:00,axn,33.65
2024-04-14T10:09:00,axn,33.08
2024-04-14T10:10:00,axn,32.66
2024-04-14T10:11:00,axn,32.45
2024-04-14T10:12:00,axn,32.39
2024-04-14T10:13:00,axn,32.05
2024-04-14T10:14:00,axn,32.64
2024-04-14T10:15:00,axn,32.50
2024-04-14T10:16:00,axn,32.41
2024-04-14T10:17:00,axn,32.25
2024-04-14T10:18:00,axn,32.25
2024-04-14T10:19:00,axn,31.84
2024-04-14T10:20:00,axn,31.94
2024-04-14T10:21:00,axn,36.19
2024-04-14T10:22:00,axn,36.24
2024-04-14T10:23:00,axn,31.88
2024-04-14T10:24:00,axn,32.43
2024-04-14T10:25:00,axn,31.77
2024-04-14T10:26:00,axn,31.64
2024-04-14T10:27:00,axn,31.70
2024-04-14T10:28:00,axn,31.87
2024-04-14T10:29:00,axn,31.61
2024-04-14T10:30:00,axn,31.69
2024-04-14T10:31:00,axn,31.76
2024-04-14T10:32:00,axn,31.68
2024-04-14T10:33:00,axn,31.37
2024-04-14T10:34:00,axn,31.38
2024-04-14T10:35:00,axn,31.51
2024-04-14T10:36:00,axn,31.51
2024-04-14T10:37:00,axn,32.16
2024-04-14T10:38:00,axn,31.91
2024-04-14T10:39:00,axn,31.55
2024-04-14T10:40:00,axn,35.97
2024-04-14T10:41:00,axn,31.51
2024-04-14T10:42:00,axn,31.59
2024-04-14T10:43:00,axn,31.40
2024-04-14T10:44:00,axn,31.07
2024-04-14T10:45:00,axn,31.21
2024-04-14T10:46:00,axn,31.51
2024-04-14T10:47:00,axn,31.36
2024-04-14T10:48:00,axn,31.64
2024-04-14T10:49:00,axn,32.43
2024-04-14T10:50:00,axn,31.68
2024-04-14T10:51:00,axn,31.56
2024-04-14T10:52:00,axn,31.57
2024-04-14T10:53:00,axn,31.36
2024-04-14T10:54:00,axn,31.79
2024-04-14T10:55:00,axn,36.90
2024-04-14T10:56:00,axn,31.69
2024-04-14T10:57:00,axn,31.51
2024-04-14T10:58:00,axn,31.46
2024-04-14T10:59:00,axn,31.36
2024-04-14T11:00:00,axn,31.81
2024-04-14T11:01:00,axn,31.65
2024-04-14T11:02:00,axn,31.67
2024-04-14T11:03:00,axn,31.93
2024-04-14T11:04:00,axn,32.16
2024-04-14T11:05:00,axn,31.91
2024-04-14T11:06:00,axn,31.72
2024-04-14T11:07:00,axn,31.84
2024-04-14T11:08:00,axn,31.89
2024-04-14T11:09:00,axn,32.34
2024-04-14T11:10:00,axn,31.90
2024-04-14T11:11:00,axn,32.40
2024-04-14T11:12:00,axn,32.05
2024-04-14T11:13:00,axn,32.93
2024-04-14T11:14:00,axn,32.83
2024-04-14T11:15:00,axn,32.60
2024-04-14T11:16:00,axn,32.49
2024-04-14T11:17:00,axn,32.84
2024-04-14T11:18:00,axn,33.02
2024-04-14T11:19:00,axn,32.59
2024-04-14T11:20:00,axn,32.89
2024-04-14T11:21:00,axn,32.45
2024-04-14T11:22:00,axn,33.02
2024-04-14T11:23:00,axn,32.47
2024-04-14T11:24:00,axn,32.38
2024-04-14T11:25:00,axn,32.74
2024-04-14T11:26:00,axn,32.17
2024-04-14T11:27:00,axn,32.88
2024-04-14T11:28:00,axn,37.08
2024-04-14T11:29:00,axn,32.50
2024-04-14T11:30:00,axn,32.52
2024-04-14T11:31:00,axn,32.02
2024-04-14T11:32:00,axn,32.03
2024-04-14T11:33:00,axn,32.02
2024-04-14T11:34:00,axn,31.60
2024-04-14T11:35:00,axn,31.62
2024-04-14T11:36:00,axn,31.59
2024-04-14T11:37:00,axn,31.84
2024-04-14T11:38:00,axn,31.67
2024-04-14T11:39:00,axn,31.59
2024-04-14T11:40:00,axn,31.36
2024-04-14T11:41:00,axn,31.31
2024-04-14T11:42:00,axn,31.19
2024-04-14T11:43:00,axn,31.51
2024-04-14T11:44:00,axn,31.40
2024-04-14T11:45:00,axn,31.34
2024-04-14T11:46:00,axn,36.70
2024-04-14T11:47:00,axn,31.71
2024-04-14T11:48:00,axn,31.14
2024-04-14T11:49:00,axn,31.00
2024-04-14T11:50:00,axn,31.06
2024-04-14T11:51:00,axn,30.88
2024-04-14T11:52:00,axn,30.91
2024-04-14T11:53:00,axn,31.47
2024-04-14T11:54:00,axn,30.79
2024-04-14T11:55:00,axn,35.13
2024-04-14T11:56:00,axn,35.01
2024-04-14T11:57:00,axn,30.68
2024-04-14T11:58:00,axn,30.55
2024-04-14T11:59:00,axn,30.58
2024-04-14T12:00:00,axn,30.94
2024-04-14T12:01:00,axn,47.28
2024-04-14T12:02:00,axn,31.18
2024-04-14T12:03:00,axn,30.88
2024-04-14T12:04:00,axn,30.77
2024-04-14T12:05:00,axn,30.67
2024-04-14T12:06:00,axn,30.54
2024-04-14T12:07:00,axn,30.61
2024-04-14T12:08:00,axn,30.36
2024-04-14T12:09:00,axn,31.18
2024-04-14T12:10:00,axn,31.11
2024-04-14T12:11:00,axn,30.33
2024-04-14T12:12:00,axn,30.40
2024-04-14T12:13:00,axn,30.18
2024-04-14T12:14:00,axn,30.13
2024-04-14T12:15:00,axn,31.12
2024-04-14T12:16:00,axn,31.20
2024-04-14T12:17:00,axn,31.75
2024-04-14T12:18:00,axn,31.28
2024-04-14T12:19:00,axn,31.61
2024-04-14T12:20:00,axn,31.09
2024-04-14T12:21:00,axn,31.26
2024-04-14T12:22:00,axn,31.44
2024-04-14T12:23:00,axn,31.29
2024-04-14T12:24:00,axn,31.26
2024-04-14T12:25:00,axn,35.76
2024-04-14T12:26:00,axn,31.40
2024-04-14T12:27:00,axn,31.36
2024-04-14T12:28:00,axn,31.82
2024-04-14T12:29:00,axn,31.49
2024-04-14T12:30:00,axn,31.55
2024-04-14T12:31:00,axn,31.47
2024-04-14T12:32:00,axn,31.41
2024-04-14T12:33:00,axn,31.54
2024-04-14T12:34:00,axn,31.59
2024-04-14T12:35:00,axn,31.51
2024-04-14T12:36:00,axn,31.66
2024-04-14T12:37:00,axn,31.22
2024-04-14T12:38:00,axn,31.70
2024-04-14T12:39:00,axn,31.89
2024-04-14T12:40:00,axn,32.30
2024-04-14T12:41:00,axn,32.11
2024-04-14T12:42:00,axn,31.98
2024-04-14T12:43:00,axn,31.64
2024-04-14T12:44:00,axn,31.98
2024-04-14T12:45:00,axn,31.82
2024-04-14T12:46:00,axn,32.12
2024-04-14T12:47:00,axn,31.81
2024-04-14T12:48:00,axn,31.97
2024-04-14T12:49:00,axn,32.07
2024-04-14T12:50:00,axn,32.10
2024-04-14T12:51:00,axn,32.15
2024-04-14T12:52:00,axn,32.08
2024-04-14T12:53:00,axn,36.71
2024-04-14T12:54:00,axn,32.36
2024-04-14T12:55:00,axn,32.02
2024-04-14T12:56:00,axn,32.44
2024-04-14T12:57:00,axn,32.80
2024-04-14T12:58:00,axn,32.31
2024-04-14T12:59:00,axn,32.84
2024-04-14T13:00:00,axn,32.43
2024-04-14T13:01:00,axn,32.22
2024-04-14T13:02:00,axn,32.07
2024-04-14T13:03:00,axn,31.91
2024-04-14T13:04:00,axn,31.82
2024-04-14T13:05:00,axn,32.70
2024-04-14T13:06:00,axn,32.14
2024-04-14T13:07:00,axn,31.83
2024-04-14T13:08:00,axn,31.89
2024-04-14T13:09:00,axn,31.71
2024-04-14T13:10:00,axn,31.68
2024-04-14T13:11:00,axn,31.60
2024-04-14T13:12:00,axn,31.47
2024-04-14T13:13:00,axn,31.24
2024-04-14T13:14:00,axn,31.38
2024-04-14T13:15:00,axn,31.69
2024-04-14T13:16:00,axn,31.63
2024-04-14T13:17:00,axn,31.54
2024-04-14T13:18:00,axn,31.40